,,,PA_Meas_PMT16A,,PR_Meas_QMR101_102,,RH_Meas_QMH101,,SR_Meas_QMS101,,TA_Meas_QMH101,,GenWind,,GenWind,
date,time,status,PA,status,PR,status,RH,status,SR,status,TA,status,DirAvg,status,SpdAvg,
2008-04-17, 00:00:04,VALID,1008.62,VALID,0,VALID,94.9406,VALID,0,VALID,24.2396,VALID,150,VALID,0.228516,
2008-04-17, 00:01:04,VALID,1008.64,VALID,0,VALID,94.9635,VALID,0,VALID,24.2396,VALID,141,VALID,0.0492188,
2008-04-17, 00:02:04,VALID,1008.63,VALID,0,VALID,95.0016,VALID,0.105969,VALID,24.2183,VALID,141,VALID,0,
2008-04-17, 00:03:04,VALID,1008.64,VALID,0,VALID,95.0169,VALID,0,VALID,24.2396,VALID,141,VALID,0,
2008-04-17, 00:04:04,VALID,1008.6,VALID,0,VALID,95.0169,VALID,0,VALID,24.2396,VALID,141,VALID,0,
2008-04-17, 00:05:04,VALID,1008.61,VALID,0,VALID,95.0093,VALID,0.105969,VALID,24.2396,VALID,141,VALID,0,
2008-04-17, 00:06:04,VALID,1008.61,VALID,0,VALID,95.0245,VALID,0.105969,VALID,24.2183,VALID,141,VALID,0.0277344,
2008-04-17, 00:07:04,VALID,1008.6,VALID,0,VALID,95.0169,VALID,0,VALID,24.2202,VALID,343,VALID,0.6125,
2008-04-17, 00:08:04,VALID,1008.61,VALID,0,VALID,95.0321,VALID,0,VALID,24.2202,VALID,345,VALID,0.496875,
2008-04-17, 00:09:04,VALID,1008.59,VALID,0,VALID,95.0321,VALID,0,VALID,24.2202,VALID,349,VALID,0.491016,
2008-04-17, 00:10:04,VALID,1008.6,VALID,0,VALID,95.0931,VALID,0,VALID,24.2202,VALID,4,VALID,0.490625,
2008-04-17, 00:11:04,VALID,1008.61,VALID,0,VALID,95.1008,VALID,0,VALID,24.2025,VALID,28,VALID,0.370313,
2008-04-17, 00:12:04,VALID,1008.6,VALID,0,VALID,95.0931,VALID,0,VALID,24.183,VALID,30,VALID,0.41875,
2008-04-17, 00:13:04,VALID,1008.6,VALID,0,VALID,95.1008,VALID,0,VALID,24.1812,VALID,32,VALID,0.296094,
2008-04-17, 00:14:04,VALID,1008.6,VALID,0,VALID,95.1084,VALID,0,VALID,24.183,VALID,48,VALID,0.241406,
2008-04-17, 00:15:04,VALID,1008.6,VALID,0,VALID,95.0931,VALID,0,VALID,24.1617,VALID,48,VALID,0.332031,
2008-04-17, 00:16:04,VALID,1008.59,VALID,0,VALID,95.0931,VALID,0,VALID,24.1617,VALID,48,VALID,0.138672,
2008-04-17, 00:17:04,VALID,1008.6,VALID,0,VALID,95.1008,VALID,0,VALID,24.1422,VALID,48,VALID,0,
2008-04-17, 00:18:04,VALID,1008.58,VALID,0,VALID,95.116,VALID,0,VALID,24.1617,VALID,48,VALID,0.201172,
2008-04-17, 00:19:04,VALID,1008.61,VALID,0,VALID,95.1542,VALID,0,VALID,24.1617,VALID,48,VALID,0.169141,
2008-04-17, 00:20:04,VALID,1008.58,VALID,0,VALID,95.1618,VALID,0,VALID,24.1422,VALID,48,VALID,0.182422,
2008-04-17, 00:21:04,VALID,1008.57,VALID,0,VALID,95.1389,VALID,0,VALID,24.1635,VALID,48,VALID,0.189063,
2008-04-17, 00:22:04,VALID,1008.56,VALID,0,VALID,95.1618,VALID,0,VALID,24.1635,VALID,48,VALID,0.130078,
2008-04-17, 00:23:04,VALID,1008.59,VALID,0,VALID,95.1694,VALID,0,VALID,24.144,VALID,48,VALID,0.146094,
2008-04-17, 00:24:04,VALID,1008.57,VALID,0,VALID,95.177,VALID,0,VALID,24.1227,VALID,48,VALID,0.209766,
2008-04-17, 00:25:04,VALID,1008.55,VALID,0,VALID,95.1847,VALID,0,VALID,24.1245,VALID,48,VALID,0.153906,
2008-04-17, 00:26:04,VALID,1008.55,VALID,0,VALID,95.177,VALID,0,VALID,24.144,VALID,48,VALID,0.00859375,
2008-04-17, 00:27:04,VALID,1008.54,VALID,0,VALID,95.2533,VALID,0,VALID,24.1227,VALID,48,VALID,0.151172,
2008-04-17, 00:28:04,VALID,1008.55,VALID,0,VALID,95.2914,VALID,0,VALID,24.1635,VALID,48,VALID,0.1625,
2008-04-17, 00:29:04,VALID,1008.53,VALID,0,VALID,95.3372,VALID,0,VALID,24.1635,VALID,48,VALID,0.0804688,
2008-04-17, 00:30:04,VALID,1008.52,VALID,0,VALID,95.3448,VALID,0,VALID,24.183,VALID,48,VALID,0,
2008-04-17, 00:31:04,VALID,1008.51,VALID,0,VALID,95.3448,VALID,0,VALID,24.1617,VALID,48,VALID,0.209375,
2008-04-17, 00:32:04,VALID,1008.49,VALID,0,VALID,95.3067,VALID,0,VALID,24.1227,VALID,120,VALID,0.367969,
2008-04-17, 00:33:04,VALID,1008.45,VALID,0,VALID,95.3143,VALID,0,VALID,24.144,VALID,120,VALID,0.372656,
2008-04-17, 00:34:04,VALID,1008.42,VALID,0,VALID,95.3067,VALID,0,VALID,24.1245,VALID,148,VALID,0.480469,
2008-04-17, 00:35:04,VALID,1008.42,VALID,0,VALID,95.3067,VALID,0,VALID,24.144,VALID,150,VALID,0.448438,
2008-04-17, 00:36:04,VALID,1008.4,VALID,0,VALID,95.3143,VALID,0,VALID,24.1227,VALID,150,VALID,0.351563,
2008-04-17, 00:37:04,VALID,1008.36,VALID,0,VALID,95.3143,VALID,0,VALID,24.144,VALID,150,VALID,0.389844,
2008-04-17, 00:38:04,VALID,1008.38,VALID,0,VALID,95.3372,VALID,0,VALID,24.144,VALID,150,VALID,0.271484,
2008-04-17, 00:39:04,VALID,1008.37,VALID,0,VALID,95.3448,VALID,0,VALID,24.1422,VALID,150,VALID,0.113281,
2008-04-17, 00:40:04,VALID,1008.36,VALID,0,VALID,95.3295,VALID,0,VALID,24.1635,VALID,150,VALID,0.139453,
2008-04-17, 00:41:04,VALID,1008.33,VALID,0,VALID,95.3143,VALID,0.105969,VALID,24.1422,VALID,150,VALID,0.285937,
2008-04-17, 00:42:04,VALID,1008.36,VALID,0,VALID,95.3448,VALID,0.105969,VALID,24.1404,VALID,150,VALID,0.207422,
2008-04-17, 00:43:04,VALID,1008.34,VALID,0,VALID,95.3295,VALID,0.105969,VALID,24.1422,VALID,150,VALID,0.0855469,
2008-04-17, 00:44:04,VALID,1008.34,VALID,0,VALID,95.3067,VALID,0.105969,VALID,24.1422,VALID,150,VALID,0.170703,
2008-04-17, 00:45:04,VALID,1008.35,VALID,0,VALID,95.299,VALID,0.105969,VALID,24.1422,VALID,150,VALID,0.263281,
2008-04-17, 00:46:04,VALID,1008.32,VALID,0,VALID,95.2762,VALID,0.105969,VALID,24.1209,VALID,142,VALID,0.411719,
2008-04-17, 00:47:04,VALID,1008.33,VALID,0,VALID,95.2533,VALID,0.105969,VALID,24.1422,VALID,131,VALID,0.159375,
2008-04-17, 00:48:04,VALID,1008.3,VALID,0,VALID,95.238,VALID,0.105969,VALID,24.1209,VALID,131,VALID,0,
2008-04-17, 00:49:04,VALID,1008.29,VALID,0,VALID,95.2304,VALID,0.105969,VALID,24.1617,VALID,131,VALID,0.00195313,
2008-04-17, 00:50:04,VALID,1008.24,VALID,0,VALID,95.1923,VALID,0.105969,VALID,24.1617,VALID,81,VALID,0.312891,
2008-04-17, 00:51:04,VALID,1008.22,VALID,0,VALID,95.1923,VALID,0.105969,VALID,24.1209,VALID,76,VALID,0.328906,
2008-04-17, 00:52:04,VALID,1008.23,VALID,0,VALID,95.1694,VALID,0.105969,VALID,24.1209,VALID,30,VALID,0.317969,
2008-04-17, 00:53:04,VALID,1008.18,VALID,0,VALID,95.177,VALID,0.105969,VALID,24.1422,VALID,30,VALID,0.285937,
2008-04-17, 00:54:04,VALID,1008.18,VALID,0,VALID,95.1465,VALID,0.105969,VALID,24.1227,VALID,30,VALID,0.307031,
2008-04-17, 00:55:04,VALID,1008.16,VALID,0,VALID,95.116,VALID,0.105969,VALID,24.1032,VALID,30,VALID,0.269531,
2008-04-17, 00:56:04,VALID,1008.16,VALID,0,VALID,95.1389,VALID,0.105969,VALID,24.0624,VALID,32,VALID,0.260938,
2008-04-17, 00:57:04,VALID,1008.18,VALID,0,VALID,95.1389,VALID,0.105969,VALID,24.0624,VALID,32,VALID,0.178906,
2008-04-17, 00:58:04,VALID,1008.16,VALID,0,VALID,95.1465,VALID,0.105969,VALID,24.0429,VALID,32,VALID,0.159766,
2008-04-17, 00:59:04,VALID,1008.15,VALID,0,VALID,95.1542,VALID,0.105969,VALID,24.0643,VALID,32,VALID,0.1125,
2008-04-17, 01:00:04,VALID,1008.13,VALID,0,VALID,95.1618,VALID,0.105969,VALID,24.0429,VALID,32,VALID,0.0714844,
2008-04-17, 01:01:04,VALID,1008.13,VALID,0,VALID,95.177,VALID,0,VALID,24.0643,VALID,32,VALID,0,
2008-04-17, 01:02:04,VALID,1008.12,VALID,0,VALID,95.1999,VALID,0.105969,VALID,24.0643,VALID,32,VALID,0.0550781,
2008-04-17, 01:03:04,VALID,1008.13,VALID,0,VALID,95.2075,VALID,0.105969,VALID,24.0429,VALID,32,VALID,0.00585938,
2008-04-17, 01:04:04,VALID,1008.12,VALID,0,VALID,95.2152,VALID,0.105969,VALID,24.0429,VALID,32,VALID,0,
2008-04-17, 01:05:04,VALID,1008.08,VALID,0,VALID,95.238,VALID,0.105969,VALID,24.0643,VALID,78,VALID,0.348047,
2008-04-17, 01:06:04,VALID,1008.07,VALID,0,VALID,95.2457,VALID,0.105969,VALID,24.0429,VALID,111,VALID,0.420312,
2008-04-17, 01:07:04,VALID,1008.06,VALID,0,VALID,95.2609,VALID,0.105969,VALID,24.0643,VALID,111,VALID,0.242188,
2008-04-17, 01:08:04,VALID,1008.06,VALID,0,VALID,95.2685,VALID,0.105969,VALID,24.0837,VALID,111,VALID,0.263281,
2008-04-17, 01:09:04,VALID,1008.04,VALID,0,VALID,95.2228,VALID,0.105969,VALID,24.0837,VALID,111,VALID,0.178125,
2008-04-17, 01:10:04,VALID,1008.04,VALID,0,VALID,95.1999,VALID,0.105969,VALID,24.0429,VALID,111,VALID,0.0105469,
2008-04-17, 01:11:04,VALID,1008.04,VALID,0,VALID,95.1999,VALID,0.105969,VALID,24.0235,VALID,119,VALID,0.152734,
2008-04-17, 01:12:04,VALID,1008.01,VALID,0,VALID,95.2228,VALID,0.105969,VALID,24.0429,VALID,166,VALID,0.532812,
2008-04-17, 01:13:04,VALID,1007.98,VALID,0,VALID,95.2075,VALID,0.105969,VALID,24.0643,VALID,158,VALID,0.557031,
2008-04-17, 01:14:04,VALID,1007.95,VALID,0,VALID,95.2152,VALID,0.105969,VALID,24.0643,VALID,153,VALID,0.509375,
2008-04-17, 01:15:04,VALID,1007.95,VALID,0,VALID,95.1694,VALID,0.105969,VALID,24.0643,VALID,131,VALID,0.592578,
2008-04-17, 01:16:04,VALID,1007.92,VALID,0,VALID,95.1694,VALID,0,VALID,24.0624,VALID,131,VALID,0.558203,
2008-04-17, 01:17:04,VALID,1007.96,VALID,0,VALID,95.1465,VALID,0.105969,VALID,24.0624,VALID,132,VALID,0.640625,
2008-04-17, 01:18:04,VALID,1007.92,VALID,0,VALID,95.1389,VALID,0,VALID,24.0837,VALID,133,VALID,0.727734,
2008-04-17, 01:19:04,VALID,1007.94,VALID,0,VALID,95.1084,VALID,0.105969,VALID,24.0624,VALID,133,VALID,0.373047,
2008-04-17, 01:20:04,VALID,1007.96,VALID,0,VALID,95.1008,VALID,0.105969,VALID,24.0837,VALID,133,VALID,0.661719,
2008-04-17, 01:21:04,VALID,1007.92,VALID,0,VALID,95.1236,VALID,0.105969,VALID,24.0624,VALID,126,VALID,0.636719,
2008-04-17, 01:22:04,VALID,1007.9,VALID,0,VALID,95.1008,VALID,0,VALID,24.1032,VALID,118,VALID,0.366016,
2008-04-17, 01:23:04,VALID,1007.9,VALID,0,VALID,95.0779,VALID,0.105969,VALID,24.0624,VALID,98,VALID,0.582812,
2008-04-17, 01:24:04,VALID,1007.89,VALID,0,VALID,95.0321,VALID,0.105969,VALID,24.0624,VALID,97,VALID,0.610937,
2008-04-17, 01:25:04,VALID,1007.89,VALID,0,VALID,95.0093,VALID,0.105969,VALID,24.0624,VALID,108,VALID,0.805469,
2008-04-17, 01:26:04,VALID,1007.86,VALID,0,VALID,94.9864,VALID,0,VALID,24.0448,VALID,97,VALID,0.170312,
2008-04-17, 01:27:04,VALID,1007.86,VALID,0,VALID,94.9635,VALID,0,VALID,24.0448,VALID,97,VALID,0.136328,
2008-04-17, 01:28:04,VALID,1007.88,VALID,0,VALID,95.0321,VALID,0,VALID,24.0448,VALID,97,VALID,0.364062,
2008-04-17, 01:29:04,VALID,1007.86,VALID,0,VALID,95.0398,VALID,0,VALID,24.0448,VALID,147,VALID,0.753125,
2008-04-17, 01:30:04,VALID,1007.89,VALID,0,VALID,94.994,VALID,0,VALID,24.0661,VALID,159,VALID,0.758203,
2008-04-17, 01:31:04,VALID,1007.87,VALID,0,VALID,94.9559,VALID,0,VALID,24.0058,VALID,149,VALID,0.700391,
2008-04-17, 01:32:04,VALID,1007.84,VALID,0,VALID,94.9635,VALID,0,VALID,24.0271,VALID,139,VALID,0.837891,
2008-04-17, 01:33:04,VALID,1007.87,VALID,0,VALID,94.9864,VALID,0,VALID,24.0058,VALID,125,VALID,0.357422,
2008-04-17, 01:34:04,VALID,1007.82,VALID,0,VALID,94.9788,VALID,0,VALID,24.0076,VALID,139,VALID,0.817578,
2008-04-17, 01:35:04,VALID,1007.83,VALID,0,VALID,95.0093,VALID,0,VALID,24.0076,VALID,114,VALID,0.472266,
2008-04-17, 01:36:04,VALID,1007.84,VALID,0,VALID,95.0169,VALID,0,VALID,23.9863,VALID,138,VALID,0.602734,
2008-04-17, 01:37:04,VALID,1007.83,VALID,0,VALID,95.0474,VALID,0,VALID,24.0076,VALID,150,VALID,0.716016,
2008-04-17, 01:38:04,VALID,1007.83,VALID,0,VALID,95.0398,VALID,0,VALID,23.9668,VALID,152,VALID,0.681641,
2008-04-17, 01:39:04,VALID,1007.82,VALID,0,VALID,95.055,VALID,0,VALID,23.9668,VALID,124,VALID,0.668359,
2008-04-17, 01:40:04,VALID,1007.85,VALID,0,VALID,95.0779,VALID,0,VALID,23.9686,VALID,137,VALID,0.836328,
2008-04-17, 01:41:04,VALID,1007.84,VALID,0,VALID,95.1008,VALID,0.105969,VALID,23.9863,VALID,148,VALID,0.553125,
2008-04-17, 01:42:04,VALID,1007.84,VALID,0,VALID,95.0931,VALID,0,VALID,23.9473,VALID,147,VALID,0.575,
2008-04-17, 01:43:04,VALID,1007.83,VALID,0,VALID,95.0855,VALID,0.105969,VALID,23.9473,VALID,158,VALID,0.71875,
2008-04-17, 01:44:04,VALID,1007.84,VALID,0,VALID,95.1084,VALID,0.105969,VALID,23.9065,VALID,162,VALID,0.883594,
2008-04-17, 01:45:04,VALID,1007.8,VALID,0,VALID,95.1618,VALID,0.105969,VALID,23.9278,VALID,159,VALID,0.839844,
2008-04-17, 01:46:04,VALID,1007.81,VALID,0,VALID,95.1999,VALID,0.105969,VALID,23.8676,VALID,169,VALID,0.749219,
2008-04-17, 01:47:04,VALID,1007.78,VALID,0,VALID,95.238,VALID,0.105969,VALID,23.8676,VALID,183,VALID,0.966797,
2008-04-17, 01:48:04,VALID,1007.77,VALID,0,VALID,95.3143,VALID,0.105969,VALID,23.8676,VALID,178,VALID,1.26094,
2008-04-17, 01:49:04,VALID,1007.8,VALID,0,VALID,95.3067,VALID,0,VALID,23.8889,VALID,174,VALID,1.29961,
2008-04-17, 01:50:04,VALID,1007.81,VALID,0,VALID,95.3448,VALID,0,VALID,23.8481,VALID,181,VALID,1.24336,
2008-04-17, 01:51:04,VALID,1007.8,VALID,0,VALID,95.4744,VALID,0.105969,VALID,23.8676,VALID,197,VALID,1.94766,
2008-04-17, 01:52:04,VALID,1007.81,VALID,0,VALID,95.4744,VALID,0.105969,VALID,23.8676,VALID,183,VALID,2.03086,
2008-04-17, 01:53:04,VALID,1007.8,VALID,0,VALID,95.4744,VALID,0.105969,VALID,23.8694,VALID,185,VALID,1.35469,
2008-04-17, 01:54:04,VALID,1007.77,VALID,0,VALID,95.4363,VALID,0.105969,VALID,23.8889,VALID,177,VALID,1.91289,
2008-04-17, 01:55:04,VALID,1007.76,VALID,0,VALID,95.3067,VALID,0.105969,VALID,23.8889,VALID,171,VALID,1.7457,
2008-04-17, 01:56:04,VALID,1007.77,VALID,0,VALID,95.1542,VALID,0.105969,VALID,23.8481,VALID,169,VALID,2.38281,
2008-04-17, 01:57:04,VALID,1007.77,VALID,0,VALID,95.055,VALID,0.105969,VALID,23.8676,VALID,169,VALID,1.54023,
2008-04-17, 01:58:04,VALID,1007.79,VALID,0,VALID,95.0169,VALID,0.105969,VALID,23.8676,VALID,161,VALID,1.45234,
2008-04-17, 01:59:04,VALID,1007.77,VALID,0,VALID,94.9788,VALID,0.105969,VALID,23.8694,VALID,161,VALID,1.98125,
2008-04-17, 02:00:04,VALID,1007.8,VALID,0,VALID,94.9025,VALID,0,VALID,23.8499,VALID,165,VALID,1.97617,
2008-04-17, 02:01:04,VALID,1007.77,VALID,0,VALID,94.8568,VALID,0.105969,VALID,23.8694,VALID,152,VALID,1.30234,
2008-04-17, 02:02:04,VALID,1007.77,VALID,0,VALID,94.8339,VALID,0.105969,VALID,23.8694,VALID,160,VALID,1.42109,
2008-04-17, 02:03:04,VALID,1007.77,VALID,0,VALID,94.8186,VALID,0.105969,VALID,23.8481,VALID,163,VALID,1.25352,
2008-04-17, 02:04:04,VALID,1007.75,VALID,0,VALID,94.7957,VALID,0.105969,VALID,23.8481,VALID,169,VALID,0.934375,
2008-04-17, 02:05:04,VALID,1007.72,VALID,0,VALID,94.8034,VALID,0.105969,VALID,23.8694,VALID,163,VALID,1.23086,
2008-04-17, 02:06:04,VALID,1007.69,VALID,0,VALID,94.8415,VALID,0,VALID,23.8481,VALID,174,VALID,1.40937,
2008-04-17, 02:07:04,VALID,1007.67,VALID,0,VALID,94.8186,VALID,0.105969,VALID,23.8499,VALID,178,VALID,0.750391,
2008-04-17, 02:08:04,VALID,1007.67,VALID,0,VALID,94.8491,VALID,0.105969,VALID,23.8499,VALID,176,VALID,0.728906,
2008-04-17, 02:09:04,VALID,1007.64,VALID,0,VALID,94.872,VALID,0.105969,VALID,23.8286,VALID,177,VALID,1.7168,
2008-04-17, 02:10:04,VALID,1007.62,VALID,0,VALID,94.8644,VALID,0.105969,VALID,23.8499,VALID,168,VALID,0.886719,
2008-04-17, 02:11:04,VALID,1007.6,VALID,0,VALID,94.8568,VALID,0.105969,VALID,23.8499,VALID,174,VALID,0.4375,
2008-04-17, 02:12:04,VALID,1007.62,VALID,0,VALID,94.8644,VALID,0.105969,VALID,23.8304,VALID,167,VALID,0.619922,
2008-04-17, 02:13:04,VALID,1007.58,VALID,0,VALID,94.8873,VALID,0.105969,VALID,23.8499,VALID,144,VALID,1.19805,
2008-04-17, 02:14:04,VALID,1007.59,VALID,0,VALID,94.872,VALID,0.105969,VALID,23.8499,VALID,166,VALID,1.20352,
2008-04-17, 02:15:04,VALID,1007.58,VALID,0,VALID,94.8949,VALID,0.105969,VALID,23.8499,VALID,153,VALID,0.613281,
2008-04-17, 02:16:04,VALID,1007.54,VALID,0,VALID,94.8796,VALID,0.105969,VALID,23.8286,VALID,161,VALID,0.919531,
2008-04-17, 02:17:04,VALID,1007.52,VALID,0,VALID,94.8873,VALID,0.105969,VALID,23.8499,VALID,154,VALID,0.529688,
2008-04-17, 02:18:04,VALID,1007.52,VALID,0,VALID,94.933,VALID,0.105969,VALID,23.8499,VALID,124,VALID,0.746875,
2008-04-17, 02:19:04,VALID,1007.51,VALID,0,VALID,94.9788,VALID,0.105969,VALID,23.8481,VALID,139,VALID,1.13828,
2008-04-17, 02:20:04,VALID,1007.51,VALID,0,VALID,94.9635,VALID,0.105969,VALID,23.8499,VALID,138,VALID,0.982031,
2008-04-17, 02:21:04,VALID,1007.52,VALID,0,VALID,94.9711,VALID,0.105969,VALID,23.8499,VALID,157,VALID,0.751172,
2008-04-17, 02:22:04,VALID,1007.56,VALID,0,VALID,94.9559,VALID,0.105969,VALID,23.8694,VALID,157,VALID,0.791406,
2008-04-17, 02:23:04,VALID,1007.56,VALID,0,VALID,94.9711,VALID,0.105969,VALID,23.8499,VALID,164,VALID,0.555469,
2008-04-17, 02:24:04,VALID,1007.55,VALID,0,VALID,95.0016,VALID,0.105969,VALID,23.8499,VALID,146,VALID,0.71875,
2008-04-17, 02:25:04,VALID,1007.58,VALID,0,VALID,95.0474,VALID,0.105969,VALID,23.8499,VALID,142,VALID,0.713281,
2008-04-17, 02:26:04,VALID,1007.59,VALID,0,VALID,95.1084,VALID,0.105969,VALID,23.8499,VALID,153,VALID,1.01641,
2008-04-17, 02:27:04,VALID,1007.59,VALID,0,VALID,95.1694,VALID,0.105969,VALID,23.8499,VALID,129,VALID,1.00156,
2008-04-17, 02:28:04,VALID,1007.56,VALID,0,VALID,95.1847,VALID,0.105969,VALID,23.8286,VALID,160,VALID,1.46211,
2008-04-17, 02:29:04,VALID,1007.58,VALID,0,VALID,95.2304,VALID,0.105969,VALID,23.8286,VALID,137,VALID,1.10234,
2008-04-17, 02:30:04,VALID,1007.6,VALID,0,VALID,95.238,VALID,0.105969,VALID,23.8499,VALID,129,VALID,1.76797,
2008-04-17, 02:31:04,VALID,1007.62,VALID,0,VALID,95.2685,VALID,0.105969,VALID,23.8304,VALID,141,VALID,2.37188,
2008-04-17, 02:32:04,VALID,1007.61,VALID,0,VALID,95.3219,VALID,0.105969,VALID,23.8091,VALID,158,VALID,1.34375,
2008-04-17, 02:33:04,VALID,1007.65,VALID,0,VALID,95.3448,VALID,0.105969,VALID,23.8091,VALID,164,VALID,1.17227,
2008-04-17, 02:34:04,VALID,1007.62,VALID,0,VALID,95.36,VALID,0.105969,VALID,23.8091,VALID,148,VALID,1.27109,
2008-04-17, 02:35:04,VALID,1007.6,VALID,0,VALID,95.4058,VALID,0,VALID,23.8304,VALID,167,VALID,1.45977,
2008-04-17, 02:36:04,VALID,1007.57,VALID,0,VALID,95.4592,VALID,0.105969,VALID,23.8304,VALID,137,VALID,1.96289,
2008-04-17, 02:37:04,VALID,1007.55,VALID,0,VALID,95.4592,VALID,0.105969,VALID,23.8109,VALID,164,VALID,1.14688,
2008-04-17, 02:38:04,VALID,1007.56,VALID,0,VALID,95.5126,VALID,0.105969,VALID,23.8109,VALID,139,VALID,2.39648,
2008-04-17, 02:39:04,VALID,1007.56,VALID,0,VALID,95.5278,VALID,0.105969,VALID,23.7701,VALID,126,VALID,1.7082,
2008-04-17, 02:40:04,VALID,1007.56,VALID,0,VALID,95.6117,VALID,0,VALID,23.7914,VALID,129,VALID,1.45078,
2008-04-17, 02:41:04,VALID,1007.54,VALID,0,VALID,95.6422,VALID,0,VALID,23.8109,VALID,128,VALID,1.37969,
2008-04-17, 02:42:04,VALID,1007.55,VALID,0,VALID,95.688,VALID,0.105969,VALID,23.8109,VALID,140,VALID,1.36133,
2008-04-17, 02:43:04,VALID,1007.56,VALID,0,VALID,95.6956,VALID,0,VALID,23.8109,VALID,151,VALID,1.56016,
2008-04-17, 02:44:04,VALID,1007.56,VALID,0,VALID,95.7413,VALID,0.105969,VALID,23.772,VALID,144,VALID,1.60391,
2008-04-17, 02:45:04,VALID,1007.53,VALID,0,VALID,95.749,VALID,0,VALID,23.7914,VALID,123,VALID,1.53828,
2008-04-17, 02:46:04,VALID,1007.55,VALID,0,VALID,95.81,VALID,0,VALID,23.772,VALID,141,VALID,1.41289,
2008-04-17, 02:47:04,VALID,1007.51,VALID,0,VALID,95.8481,VALID,0.105969,VALID,23.7507,VALID,145,VALID,1.99336,
2008-04-17, 02:48:04,VALID,1007.53,VALID,0,VALID,95.8862,VALID,0,VALID,23.7914,VALID,178,VALID,1.00352,
2008-04-17, 02:49:04,VALID,1007.48,VALID,0,VALID,95.9015,VALID,0,VALID,23.7507,VALID,167,VALID,1.92383,
2008-04-17, 02:50:04,VALID,1007.46,VALID,0,VALID,95.932,VALID,0,VALID,23.772,VALID,178,VALID,2.36133,
2008-04-17, 02:51:04,VALID,1007.47,VALID,0,VALID,95.9777,VALID,0.105969,VALID,23.7312,VALID,167,VALID,1.76992,
2008-04-17, 02:52:04,VALID,1007.47,VALID,0,VALID,96.0159,VALID,0.105969,VALID,23.7507,VALID,168,VALID,1.20391,
2008-04-17, 02:53:04,VALID,1007.46,VALID,0,VALID,96.0235,VALID,0.105969,VALID,23.7312,VALID,133,VALID,1.61602,
2008-04-17, 02:54:04,VALID,1007.44,VALID,0,VALID,96.0311,VALID,0,VALID,23.772,VALID,153,VALID,1.2293,
2008-04-17, 02:55:04,VALID,1007.46,VALID,0,VALID,96.0769,VALID,0,VALID,23.7507,VALID,187,VALID,1.34883,
2008-04-17, 02:56:04,VALID,1007.41,VALID,0,VALID,96.0921,VALID,0.105969,VALID,23.772,VALID,169,VALID,2.16055,
2008-04-17, 02:57:04,VALID,1007.44,VALID,0,VALID,96.1226,VALID,0,VALID,23.772,VALID,160,VALID,1.35859,
2008-04-17, 02:58:04,VALID,1007.41,VALID,0,VALID,96.0997,VALID,0,VALID,23.7507,VALID,165,VALID,1.10273,
2008-04-17, 02:59:04,VALID,1007.42,VALID,0,VALID,96.1074,VALID,0.105969,VALID,23.772,VALID,136,VALID,1.39688,
2008-04-17, 03:00:04,VALID,1007.37,VALID,0,VALID,96.1531,VALID,0,VALID,23.7507,VALID,172,VALID,1.0793,
2008-04-17, 03:01:04,VALID,1007.38,VALID,0,VALID,96.1379,VALID,0.105969,VALID,23.772,VALID,140,VALID,2.05898,
2008-04-17, 03:02:04,VALID,1007.36,VALID,0,VALID,96.1455,VALID,0.105969,VALID,23.772,VALID,149,VALID,1.15859,
2008-04-17, 03:03:04,VALID,1007.38,VALID,0,VALID,96.1455,VALID,0,VALID,23.7525,VALID,143,VALID,1.62891,
2008-04-17, 03:04:04,VALID,1007.4,VALID,0,VALID,96.1684,VALID,0,VALID,23.772,VALID,165,VALID,1.35547,
2008-04-17, 03:05:04,VALID,1007.41,VALID,0,VALID,96.1836,VALID,0.105969,VALID,23.772,VALID,147,VALID,0.979297,
2008-04-17, 03:06:04,VALID,1007.42,VALID,0,VALID,96.1989,VALID,0.105969,VALID,23.7914,VALID,176,VALID,0.784375,
2008-04-17, 03:07:04,VALID,1007.44,VALID,0,VALID,96.1913,VALID,0.105969,VALID,23.7914,VALID,150,VALID,1.03125,
2008-04-17, 03:08:04,VALID,1007.43,VALID,0,VALID,96.1836,VALID,0.105969,VALID,23.7914,VALID,137,VALID,0.983984,
2008-04-17, 03:09:04,VALID,1007.44,VALID,0,VALID,96.2065,VALID,0.105969,VALID,23.7914,VALID,139,VALID,1.52031,
2008-04-17, 03:10:04,VALID,1007.44,VALID,0,VALID,96.176,VALID,0,VALID,23.7701,VALID,135,VALID,1.45039,
2008-04-17, 03:11:04,VALID,1007.45,VALID,0,VALID,96.1836,VALID,0.105969,VALID,23.7914,VALID,153,VALID,0.858203,
2008-04-17, 03:12:04,VALID,1007.42,VALID,0,VALID,96.1836,VALID,0.105969,VALID,23.7914,VALID,142,VALID,1.44375,
2008-04-17, 03:13:04,VALID,1007.46,VALID,0,VALID,96.1836,VALID,0.105969,VALID,23.7701,VALID,157,VALID,1.04219,
2008-04-17, 03:14:04,VALID,1007.42,VALID,0,VALID,96.2141,VALID,0,VALID,23.7701,VALID,144,VALID,1.50039,
2008-04-17, 03:15:04,VALID,1007.42,VALID,0,VALID,96.1989,VALID,0.105969,VALID,23.7701,VALID,146,VALID,1.4582,
2008-04-17, 03:16:04,VALID,1007.44,VALID,0,VALID,96.2218,VALID,0,VALID,23.7914,VALID,135,VALID,1.1207,
2008-04-17, 03:17:04,VALID,1007.38,VALID,0,VALID,96.1913,VALID,0,VALID,23.7507,VALID,123,VALID,1.38516,
2008-04-17, 03:18:04,VALID,1007.41,VALID,0,VALID,96.1836,VALID,0.105969,VALID,23.7914,VALID,129,VALID,1.31602,
2008-04-17, 03:19:04,VALID,1007.42,VALID,0,VALID,96.2141,VALID,0.105969,VALID,23.7914,VALID,138,VALID,1.41758,
2008-04-17, 03:20:04,VALID,1007.41,VALID,0,VALID,96.1913,VALID,0,VALID,23.7701,VALID,142,VALID,1.20781,
2008-04-17, 03:21:04,VALID,1007.42,VALID,0,VALID,96.1989,VALID,0,VALID,23.7914,VALID,145,VALID,1.40352,
2008-04-17, 03:22:04,VALID,1007.43,VALID,0,VALID,96.1913,VALID,0,VALID,23.772,VALID,148,VALID,1.70352,
2008-04-17, 03:23:04,VALID,1007.42,VALID,0,VALID,96.176,VALID,0,VALID,23.772,VALID,140,VALID,1.76719,
2008-04-17, 03:24:04,VALID,1007.44,VALID,0,VALID,96.1455,VALID,0,VALID,23.7525,VALID,149,VALID,1.59102,
2008-04-17, 03:25:04,VALID,1007.43,VALID,0,VALID,96.1455,VALID,0.105969,VALID,23.7312,VALID,151,VALID,1.49492,
2008-04-17, 03:26:04,VALID,1007.45,VALID,0,VALID,96.1226,VALID,0,VALID,23.7507,VALID,117,VALID,1.05898,
2008-04-17, 03:27:04,VALID,1007.44,VALID,0,VALID,96.115,VALID,0,VALID,23.733,VALID,149,VALID,1.6793,
2008-04-17, 03:28:04,VALID,1007.47,VALID,0,VALID,96.0769,VALID,0,VALID,23.7312,VALID,152,VALID,1.02578,
2008-04-17, 03:29:04,VALID,1007.48,VALID,0,VALID,96.0616,VALID,0.105969,VALID,23.7312,VALID,153,VALID,1.43594,
2008-04-17, 03:30:04,VALID,1007.46,VALID,0,VALID,96.0235,VALID,0,VALID,23.7117,VALID,171,VALID,0.998828,
2008-04-17, 03:31:04,VALID,1007.5,VALID,0,VALID,96.0235,VALID,0.105969,VALID,23.7525,VALID,177,VALID,0.814062,
2008-04-17, 03:32:04,VALID,1007.49,VALID,0,VALID,96.0159,VALID,0.105969,VALID,23.733,VALID,157,VALID,0.583984,
2008-04-17, 03:33:04,VALID,1007.45,VALID,0,VALID,96.0082,VALID,0,VALID,23.733,VALID,166,VALID,0.525391,
2008-04-17, 03:34:04,VALID,1007.41,VALID,0,VALID,95.9854,VALID,0.105969,VALID,23.733,VALID,167,VALID,1.14922,
2008-04-17, 03:35:04,VALID,1007.39,VALID,0,VALID,96.0006,VALID,0,VALID,23.7312,VALID,147,VALID,1.09805,
2008-04-17, 03:36:04,VALID,1007.37,VALID,0,VALID,95.9701,VALID,0.105969,VALID,23.733,VALID,144,VALID,1.0125,
2008-04-17, 03:37:04,VALID,1007.37,VALID,0,VALID,95.9625,VALID,0,VALID,23.733,VALID,156,VALID,0.958984,